Погода в Кутаиси

Погода в Кутаиси : погода сейчас, прогноз погоды и архив. Всё, что Вы хотите узнать о погоде в Кутаиси!

Поиск расширенной информации на нашем сайте:

Другие новости

Новости СМИ2

Главная страница сайта

Новости сайта

02.10.2013

Напоминаем, что на нашем новом сайте вы можете получить высокодетализированные прогнозы погоды по пунктам России, СНГ и мира (включающие важные для авиации метеовеличины, такие как направление и скорость ветра, видимость, явления погоды, количество и форма облачности, нижняя и верхняя граница облачности), а также ознакомиться с разнообразными материалами по авиационной метеорологии и подборкой полезных ссылок на эту тему.

Сайт Метеоцентр.Азия посвящён разработке технологий оптимизации авиаметеорологического обслуживания, включая проектирование и перспективное создание нескольких автоматизированных авиаметеорологических систем:
- система выпуска высокодетальных прогностических карт явлений погоды для нижнего воздушного пространства по России и ближнему зарубежью;
- система верификации прогнозов TAF (выпускаемых синоптиками официальных АМСГ РФ и ближнего зарубежья) и AUTOTAF (выпускаемых сайтом Метеоцентр.Азия) - выявление ошибок, онлайн-сопоставление с фактической погодой METAR, автоматическое внесение коррективов в прогнозы при резком отклонении фактической погоды от прогноза, подсчёт оправдываемости прогнозов по элементам и в целом;
- система обработки, анализа и отображения авиаметеорологической информации для применения провайдерами метеорологической информации.

Рекомендуем: Киноманы могут смотреть ужасы онлайн бесплатно в хорошем качестве

Погода в Кутаиси - сегодня

Время (UTC), дата Ветер
(°,м/с) 
Видим.   Явления Облачность Т
(°С)
Тd
(°С)
f(%) Тe
(°С)
Pmin
(гПа)
dP
(гПа)
Po
(мм)
O2
(г/м3)
Тmin Tmax R s Состояние
почвы
21 15.02.17 120 (ЮВ) 2000 м  слаб. снег  10/8 300 м средняя 
[Frnb|Ac As]
+0.2 -0.4 96 -1  1020.6  755  304           
00 16.02.17 120 (ЮВ) 10 км  в посл. час снег  10/8 600 м средняя 
[Sc|As op]
-0.2 -0.8 96 -2  1020  -0.6  754  304           
03 16.02.17 320 (СЗ) 2000 м  слаб. снег  10/8 300 м средняя 
[Frnb|Ac As]
+0 -0.6 96 -2  1020.1  0.1  754  304      15   
09 16.02.17 270 (З) 10 км  {снег}  10/8 600 м средняя 
[Sc|As op]
+1.4 +0.6 94 +1  1020.7  755  302           
12 16.02.17 270 (З) 10 км  {снег}  10/8 600 м средняя 
[Sc|As op]
+0.6 -2 83 -3  1022.2  1.4  756  304           
18 16.02.17 180 (Ю) 10 км  {снег}  10/6 1000 м средняя 
[Sc|As op]
-1.4 -4 82 -2  1025.1  1.5  758  307    +2.4     
21 16.02.17 тихо ()   10 км    10/6 1000 м средняя 
[Sc|As op]
-1.6 -2.5 94 -2  1026.4  1.2  759  308           
00 17.02.17 270 (З) 2000 м  слаб. снег  10/8 300 м средняя 
[Frnb|As op]
-1.6 -1.9 98 -4  1026.9  0.5  759  308           
03 17.02.17 270 (З) 2000 м  слаб. снег  10/8 300 м средняя 
[Frnb|As op]
-1.8 -2.4 96 -3  1026.7  -0.2  759  308      20   
09 17.02.17 090 (В) 2000 м  слаб. снег  10/8 300 м средняя 
[Frnb|As op]
-0.2 -0.5 98 -1  1030.4  0.9  762  307           
12 17.02.17 270 (З) 20000 м  {снег}  8/4 1500 м средняя 
[Sc|Ac trans]
+1.8 -2.6 73 1030.6  0.3  762  305           
21 17.02.17 090 (В) 10 км    8/4 1000 м средняя 
[Sc|Ac trans]
-2.6 -3.2 96 -4  1033.7  0.5  764  311           
00 18.02.17 090 (В) 10 км    6/3 1500 м средняя 
[Sc|Ac trans]
-4 -4.5 96 -6  1032.7  -1  763  313           
03 18.02.17 090 (В) 10 км    4/3 1500 м средняя 
[Sc|Ac trans]
-4 -6.2 85 -7  1031.5  -1.1  763  313        20   
09 18.02.17 090 (В) 10  20000 м    ясно 
+3.6 -8.3 41 1028.5  -1.5  761  303           
12 18.02.17 090 (В) 20000 м    4/0 верхняя 
[Ci fib]
+5.8 -7.4 38 +3  1026.4  -1.8  759  300           
15 18.02.17 090 (В) 20000 м    8/0 средняя 
[Ac trans]
+5.1 -7.2 41 +2  1026.1  -0.4  759  301    +5.8       
21 18.02.17 090 (В) 10 км    ясно 
+1 -5.8 60 1028  0.8  760  306           
00 19.02.17 090 (В) 10 км    4/0 средняя 
[Ac trans]
+0.9 -5.9 60 1029.4  1.4  761  306           
03 19.02.17 090 (В) 10 км    8/0 средняя 
[Ac trans]
+1.4 -4.9 63 1030.3  0.9  762  306        12   
09 19.02.17 090 (В) 20000 м    3/0 средняя, верхняя 
[Ac trans|Ci fib]
+8.2 -4.1 42 +8  1030.1  -0.6  762  299           
12 19.02.17 320 (СЗ) 20000 м    3/0 средняя 
[Ac trans]
+10.6 -1.4 43 +11  1029.2  -0.8  761  295           
21 19.02.17 090 (В) 10 км    3/0 средняя 
[Ac trans]
+4.3 -3.9 55 +3  1029  -0.2  761  302           
00 20.02.17 090 (В) 10 км    3/0 средняя 
[Ac trans]
+3.5 -4.7 55 +2  1028.1  -1  760  303           
03 20.02.17 090 (В) 10 км    ясно 
+3.2 -5.1 54 +1  1027.3  -0.8  760  303         
Время (UTC), дата Ветер
(°,м/с) 
Видим.   Явления Облачность Т
(°С)
Тd
(°С)
f(%) Тe
(°С)
Pmin
(гПа)
dP
(гПа)
Po
(мм)
O2
(г/м3)
Тmin Tmax R s Состояние
почвы

Для получения пояснительной информации подведите курсор к названию столбца.

ПОГОДА в Кутаиси - архив

Всё, что Вы хотите узнать о погоде в Кутаиси - удобно и подробно!

Выберите нужную дату (начиная с 1 января 2015* года) и нажмите кнопку "Найти".
Будут отображены архивные сводки погоды по пункту Кутаиси, начиная с указанной даты.


Отображать данные в формате CSV (для использования в таблицах Excel)


Внимание! Наш архив погоды предназначен исключительно для личного некоммерческого использования в познавательных целях. Если Вам необходимы официальные справки о состоянии погоды (для производственных, юридических, коммерческих и т.п. целей), обращайтесь в органы Росгидромета.

*Примечание: данная дата относится к архиву по метеостанциям СССР (Россия, СНГ, Балтия).
Архив по метеостанциям Зарубежной Европы и Азии (кроме Китая) хранится 10 дней, по другим регионам земного шара (Китай, Африка, Америка, Австралия, Океания) - 1 день.

Кутаиси - район местоположения метеостанции


Название, широта, долгота, высота метеостанции:
Кутаиси 42.3°ш. 42.6°д. 116 м над ур. моря [Грузия]

Дополнительная информация

В oтличие oт бoльшинства пoгoдных сайтoв мы публикуем пoдрoбную метеoинфoрмацию в детальнoм прoфессиoнальнoм фoрмате.

Характеристики температуры и влажнoсти вoздуха измеряются на высoте 2 м в тени вдали oт зданий и деревьев.
Скoрoсть ветра измеряется на высoте 10 м (на урoвне рoста челoвека скoрoсть ветра ниже в 1.5-2 раза). Если метеoстанция нахoдится в гoрoде или в лесу, тo скoрoсть ветра занижена на 2-4 м/с пo сравнению с oткрытым местoм. Скoрoсть ветра над акватoриями крупных рек и oзёр, а также на вершинах хoлмoв на 2-5 м/с выше, чем в oбычных услoвиях.
Атмoсфернoе давление в разных тoчках местнoсти мoжет значительнo oтличаться oт давления на метеoстанции, в зависимoсти oт услoвий рельефа (при пoдъёме на 10 м давление пoнижается примернo на 1 мм рт.ст.).